Weather History for Topeka, KS

Change the Weather History Date:

Monday, December 31, 2012

  Actual Average Record
Temperature  
Mean Temperature 31 °F 30 °F  
Max Temperature 39 °F 39 °F 66 °F (2011)
Min Temperature 22 °F 20 °F -10 °F (1976)
Degree Days  
Heating Degree Days 34 35  
Month to date heating degree days 881 1023  
Since 1 July heating degree days 1768 2017  
Cooling Degree Days 0 0  
Month to date cooling degree days 0 0  
Year to date cooling degree days 1978 1422  
Moisture  
Dew Point 22 °F    
Average Humidity 66    
Maximum Humidity 88    
Minimum Humidity 44    
Precipitation  
Precipitation 0.18 in 0.03 in 0.82 in (1947)
Month to date precipitation 0.79 1.35  
Year to date precipitation 23.06 36.46  
Snow  
Snow 2.60 in 0.20 in 8.00 in (1984)
Month to date snowfall 5.4 5.2  
Year to date snowfall 8.4 17.8  
Since 1 July snowfall 5.4 6.5  
Snow Depth T in    
Sea Level Pressure  
Sea Level Pressure 30.13 in    
Wind  
Wind Speed 8 mph (NNE)    
Max Wind Speed 16 mph    
Max Gust Speed 20 mph    
Visibility 4 miles    
Events Fog , Snow    
T = Trace of Precipitation, MM = Missing Value Source: NWS Daily Summary

Daily Weather History Graph

Daily Weather History Graph

Search for Another Location

Airport:

Trip Planner

Search our weather history database for the weather conditions in past years. The results will help you decide how hot, cold, wet, or windy it might be!

Date:

Astronomy

Dec. 31, 2012 Rise Set
Actual Time 7:41 AM CST 5:10 PM CST
Civil Twilight 7:11 AM CST 5:40 PM CST
Nautical Twilight 6:38 AM CST 6:13 PM CST
Astronomical Twilight 6:05 AM CST 6:46 PM CST
Moon 8:40 PM CST (12/31) 9:25 AM CST (12/31)
Length of Visible Light 10h 28m
Length of Day
9h 28m
Waning Gibbous, 90% of the Moon is Illuminated
Dec 31
Waning Gibbous
Jan 4
Last Quarter
Jan 11
New
Jan 18
First Quarter
Jan 26
Full

Hourly Weather History & Observations

Time (CST) Temp. Windchill Dew Point Humidity Pressure Visibility Wind Dir Wind Speed Gust Speed Precip Events Conditions
12:53 AM 39.0 °F 31.8 °F 19.0 °F 45% 30.14 in 10.0 mi SW 11.5 mph - N/A   Clear
1:53 AM 37.9 °F 33.5 °F 19.0 °F 47% 30.15 in 10.0 mi SW 5.8 mph - N/A   Clear
2:53 AM 37.0 °F 32.4 °F 19.9 °F 50% 30.15 in 10.0 mi SW 5.8 mph - N/A   Clear
3:53 AM 37.0 °F 32.4 °F 19.9 °F 50% 30.13 in 10.0 mi SSW 5.8 mph - N/A   Mostly Cloudy
4:53 AM 37.0 °F 33.3 °F 19.9 °F 50% 30.12 in 10.0 mi SW 4.6 mph - N/A   Mostly Cloudy
5:53 AM 37.0 °F - 21.0 °F 52% 30.10 in 10.0 mi Calm Calm - N/A   Overcast
6:53 AM 35.1 °F 32.2 °F 21.0 °F 57% 30.12 in 10.0 mi West 3.5 mph - N/A   Clear
7:53 AM 35.1 °F - 21.0 °F 57% 30.13 in 10.0 mi Calm Calm - N/A   Overcast
8:53 AM 34.0 °F - 24.1 °F 67% 30.15 in 10.0 mi Calm Calm - N/A   Overcast
9:53 AM 32.0 °F 23.6 °F 24.1 °F 73% 30.16 in 4.0 mi NNE 10.4 mph - 0.00 in Snow Light Snow
10:04 AM 30.9 °F 21.2 °F 24.1 °F 76% 30.14 in 2.0 mi NNE 12.7 mph - 0.00 in Snow Light Snow
10:11 AM 30.0 °F 21.7 °F 25.0 °F 82% 30.15 in 1.8 mi NNE 9.2 mph - 0.00 in Snow Light Snow
10:53 AM 30.0 °F 23.2 °F 26.1 °F 85% 30.19 in 1.0 mi NNE 6.9 mph - 0.01 in Snow Light Snow
11:10 AM 30.0 °F 24.1 °F 26.1 °F 85% 30.16 in 1.0 mi NNE 5.8 mph - 0.01 in Snow Light Snow
11:27 AM 30.0 °F 21.1 °F 25.0 °F 82% 30.14 in 1.8 mi NNE 10.4 mph - 0.01 in Snow Light Snow
11:53 AM 30.0 °F 22.4 °F 26.1 °F 85% 30.14 in 2.5 mi NNE 8.1 mph - 0.01 in Snow Light Snow
12:01 PM 28.9 °F 18.6 °F 24.1 °F 82% 30.11 in 3.0 mi NNE 12.7 mph - 0.00 in Snow Light Snow
12:53 PM 28.9 °F 19.2 °F 24.1 °F 82% 30.11 in 10.0 mi NNE 11.5 mph - 0.00 in   Overcast
1:53 PM 28.9 °F 20.4 °F 25.0 °F 85% 30.09 in 2.5 mi NNE 9.2 mph - 0.01 in Snow Light Snow
1:59 PM 28.9 °F 20.4 °F 25.0 °F 85% 30.07 in 0.8 mi NNE 9.2 mph - 0.00 in Snow Light Snow
2:02 PM 28.9 °F 20.4 °F 25.0 °F 85% 30.08 in 0.5 mi NNE 9.2 mph - 0.00 in Fog , Snow Snow
2:16 PM 28.9 °F 21.1 °F 26.1 °F 89% 30.08 in 0.5 mi NNE 8.1 mph - 0.02 in Fog , Snow Snow
2:27 PM 28.9 °F 21.9 °F 26.1 °F 89% 30.07 in 0.8 mi NNE 6.9 mph - 0.02 in Snow Light Snow
2:38 PM 28.9 °F 20.4 °F 26.1 °F 89% 30.07 in 0.8 mi North 9.2 mph - 0.03 in Snow Light Snow
2:53 PM 28.9 °F 21.1 °F 25.0 °F 85% 30.09 in 0.8 mi NNE 8.1 mph - 0.04 in Snow Light Snow
3:02 PM 28.9 °F 19.2 °F 25.0 °F 85% 30.06 in 1.0 mi NNE 11.5 mph - 0.00 in Snow Light Snow
3:32 PM 28.9 °F 20.4 °F 25.0 °F 85% 30.07 in 2.0 mi North 9.2 mph - 0.01 in Snow Light Snow
3:53 PM 28.9 °F 19.2 °F 24.1 °F 82% 30.10 in 2.5 mi North 11.5 mph - 0.02 in Snow Light Snow
4:11 PM 28.0 °F 18.6 °F 24.1 °F 85% 30.08 in 2.5 mi NNE 10.4 mph - 0.00 in Snow Light Snow
4:39 PM 27.0 °F 17.3 °F 23.0 °F 85% 30.09 in 2.0 mi North 10.4 mph - 0.00 in Snow Light Snow
4:53 PM 27.0 °F 18.0 °F 23.0 °F 85% 30.12 in 2.5 mi North 9.2 mph - 0.00 in Snow Light Snow
5:00 PM 27.0 °F 17.3 °F 23.0 °F 85% 30.10 in 4.0 mi North 10.4 mph - 0.00 in Snow Light Snow
5:29 PM 26.1 °F 15.6 °F 21.0 °F 81% 30.11 in 3.0 mi NNE 11.5 mph - 0.01 in Snow Light Snow
5:39 PM 26.1 °F 15.6 °F 21.0 °F 81% 30.11 in 3.0 mi NNE 11.5 mph - 0.01 in Snow Light Snow
5:53 PM 26.1 °F 16.8 °F 21.0 °F 81% 30.15 in 3.0 mi North 9.2 mph - 0.02 in Snow Light Snow
6:04 PM 26.1 °F 16.2 °F 21.9 °F 84% 30.12 in 2.0 mi NNE 10.4 mph - 0.00 in Snow Light Snow
6:12 PM 26.1 °F 18.4 °F 21.9 °F 84% 30.12 in 1.2 mi NNE 6.9 mph - 0.00 in Snow Light Snow
6:53 PM 25.0 °F 14.8 °F 21.0 °F 85% 30.16 in 1.5 mi NNE 10.4 mph - 0.02 in Snow Light Snow
7:37 PM 25.0 °F 15.5 °F 21.0 °F 85% 30.15 in 2.5 mi North 9.2 mph - 0.02 in Snow Light Snow
7:53 PM 24.8 °F 13.4 °F 19.4 °F 80% 30.15 in 3.0 mi NNE 12.7 mph - N/A Snow Light Snow
8:01 PM 24.1 °F 13.1 °F 19.9 °F 84% 30.15 in 4.0 mi NNE 11.5 mph - 0.00 in Snow Light Snow
8:53 PM 24.1 °F 16.0 °F 19.9 °F 84% 30.18 in 4.0 mi NNE 6.9 mph - 0.01 in Snow Light Snow
9:03 PM 24.1 °F 14.4 °F 19.9 °F 84% 30.16 in 7.0 mi NNE 9.2 mph - 0.00 in Snow Light Snow
9:35 PM 24.1 °F 14.4 °F 19.0 °F 81% 30.17 in 4.0 mi NNE 9.2 mph - 0.00 in Snow Light Snow
9:45 PM 24.1 °F 13.7 °F 19.0 °F 81% 30.17 in 2.0 mi NNE 10.4 mph - 0.00 in Snow Light Snow
9:53 PM 23.0 °F 12.4 °F 19.0 °F 85% 30.20 in 2.5 mi North 10.4 mph - 0.00 in Snow Light Snow
10:53 PM 23.0 °F 13.9 °F 19.0 °F 85% 30.22 in 2.0 mi NNE 8.1 mph - 0.01 in Snow Light Snow
11:05 PM 23.0 °F 15.8 °F 19.0 °F 85% 30.19 in 2.0 mi North 5.8 mph - 0.01 in Snow Light Snow
11:45 PM 21.9 °F 10.4 °F 18.0 °F 85% 30.20 in 3.0 mi North 11.5 mph - 0.01 in Snow Light Snow
11:53 PM 21.9 °F 11.7 °F 18.0 °F 85% 30.23 in 3.0 mi North 9.2 mph - 0.01 in Snow Light Snow